Time,TemperatureF,DewpointF,PressureIn,WindDirection,WindDirectionDegrees,WindSpeedMPH,WindSpeedGustMPH,Humidity,HourlyPrecipIn,Conditions,Clouds,dailyrainin,SoftwareType,DateUTC
2013-05-30 00:05:00,58.1,57.0,29.58,West,277,4.0,35.0,96,0.24,,,0.81,Wunderground v.1.15,2013-05-30 05:05:00,
2013-05-30 00:10:00,58.0,56.9,29.54,WNW,297,2.0,35.0,96,0.23,,,0.84,Wunderground v.1.15,2013-05-30 05:10:00,
2013-05-30 00:15:00,57.9,56.8,29.51,North,355,3.0,35.0,96,0.21,,,0.86,Wunderground v.1.15,2013-05-30 05:15:00,
2013-05-30 00:25:00,57.8,56.7,29.47,NE,54,6.0,35.0,96,0.20,,,0.89,Wunderground v.1.15,2013-05-30 05:25:00,
2013-05-30 00:30:00,57.7,56.6,29.48,ENE,59,7.0,7.0,96,0.21,,,0.91,Wunderground v.1.15,2013-05-30 05:30:00,
2013-05-30 00:35:00,57.6,56.5,29.47,ENE,59,6.0,35.0,96,0.21,,,0.93,Wunderground v.1.15,2013-05-30 05:35:00,
2013-05-30 00:40:00,57.7,56.6,29.48,ENE,59,4.0,35.0,96,0.26,,,0.95,Wunderground v.1.15,2013-05-30 05:40:00,
2013-05-30 00:50:00,57.7,56.6,29.50,NE,36,4.0,4.0,96,0.24,,,0.99,Wunderground v.1.15,2013-05-30 05:50:00,
2013-05-30 00:55:00,57.7,56.6,29.49,NE,36,2.0,35.0,96,0.23,,,1.01,Wunderground v.1.15,2013-05-30 05:55:00,
2013-05-30 01:00:00,57.6,56.5,29.49,NE,36,1.0,1.0,96,0.17,,,0.01,Wunderground v.1.15,2013-05-30 06:00:00,
2013-05-30 01:05:00,57.6,56.5,29.49,NE,36,0.0,35.0,96,0.16,,,0.03,Wunderground v.1.15,2013-05-30 06:05:00,
2013-05-30 01:15:00,57.6,56.8,29.50,NE,36,1.0,35.0,97,0.20,,,0.06,Wunderground v.1.15,2013-05-30 06:15:00,
2013-05-30 01:20:00,57.7,56.9,29.51,NE,40,2.0,35.0,97,0.16,,,0.07,Wunderground v.1.15,2013-05-30 06:20:00,
2013-05-30 01:25:00,57.6,56.8,29.51,ENE,63,4.0,35.0,97,0.18,,,0.08,Wunderground v.1.15,2013-05-30 06:25:00,
2013-05-30 01:35:00,57.7,56.9,29.51,SE,128,8.0,35.0,97,0.14,,,0.11,Wunderground v.1.15,2013-05-30 06:35:00,
2013-05-30 01:40:00,57.7,56.6,29.51,SE,128,9.0,9.0,96,0.18,,,0.12,Wunderground v.1.15,2013-05-30 06:40:00,
2013-05-30 01:45:00,57.8,56.7,29.51,SE,131,8.0,35.0,96,0.14,,,0.13,Wunderground v.1.15,2013-05-30 06:45:00,
2013-05-30 01:50:00,57.7,56.6,29.51,SE,132,8.0,8.0,96,0.12,,,0.15,Wunderground v.1.15,2013-05-30 06:50:00,
2013-05-30 02:00:00,57.7,56.9,29.50,SE,144,10.0,35.0,97,0.12,,,0.17,Wunderground v.1.15,2013-05-30 07:00:00,
2013-05-30 02:05:00,57.6,56.8,29.50,SE,145,10.0,35.0,97,0.16,,,0.18,Wunderground v.1.15,2013-05-30 07:05:00,
2013-05-30 02:15:00,57.7,56.6,29.51,SSE,152,11.0,35.0,96,0.14,,,0.20,Wunderground v.1.15,2013-05-30 07:15:00,
2013-05-30 02:20:00,57.6,56.5,29.50,SSE,155,11.0,35.0,96,0.11,,,0.21,Wunderground v.1.15,2013-05-30 07:20:00,
2013-05-30 02:25:00,57.6,56.5,29.51,SSE,153,11.0,35.0,96,0.13,,,0.22,Wunderground v.1.15,2013-05-30 07:25:00,
2013-05-30 02:35:00,57.5,56.4,29.51,SSE,158,12.0,35.0,96,0.13,,,0.24,Wunderground v.1.15,2013-05-30 07:35:00,
2013-05-30 02:40:00,57.5,56.4,29.51,SSE,156,13.0,13.0,96,0.10,,,0.25,Wunderground v.1.15,2013-05-30 07:40:00,
2013-05-30 02:50:00,57.6,56.5,29.52,SSE,157,15.0,15.0,96,0.10,,,0.26,Wunderground v.1.15,2013-05-30 07:50:00,
2013-05-30 02:55:00,57.6,56.5,29.51,SSE,159,14.0,35.0,96,0.12,,,0.28,Wunderground v.1.15,2013-05-30 07:55:00,
2013-05-30 03:00:00,57.6,56.5,29.52,SSE,155,13.0,35.0,96,0.10,,,0.28,Wunderground v.1.15,2013-05-30 08:00:00,
2013-05-30 03:05:00,57.7,56.3,29.52,SSE,163,14.0,35.0,95,0.12,,,0.29,Wunderground v.1.15,2013-05-30 08:05:00,
2013-05-30 03:15:00,57.8,56.4,29.53,SSE,163,15.0,35.0,95,0.09,,,0.31,Wunderground v.1.15,2013-05-30 08:15:00,
2013-05-30 03:20:00,57.9,56.5,29.52,SSE,159,15.0,15.0,95,0.11,,,0.32,Wunderground v.1.15,2013-05-30 08:20:00,
2013-05-30 03:25:00,57.9,56.5,29.52,SSE,161,15.0,35.0,95,0.09,,,0.33,Wunderground v.1.15,2013-05-30 08:25:00,
2013-05-30 03:30:00,57.9,56.2,29.52,SSE,156,16.0,16.0,94,0.11,,,0.34,Wunderground v.1.15,2013-05-30 08:30:00,
2013-05-30 03:40:00,58.0,56.3,29.50,SSE,151,20.0,35.0,94,0.08,,,0.35,Wunderground v.1.15,2013-05-30 08:40:00,
2013-05-30 03:45:00,57.9,56.2,29.49,SSE,148,21.0,35.0,94,0.11,,,0.36,Wunderground v.1.15,2013-05-30 08:45:00,
2013-05-30 03:50:00,58.0,56.3,29.49,SSE,148,21.0,35.0,94,0.08,,,0.36,Wunderground v.1.15,2013-05-30 08:50:00,
2013-05-30 03:55:00,58.1,56.4,29.49,SSE,150,20.0,35.0,94,0.08,,,0.37,Wunderground v.1.15,2013-05-30 08:55:00,
2013-05-30 04:05:00,58.0,56.3,29.49,SSE,155,18.0,35.0,94,0.08,,,0.38,Wunderground v.1.15,2013-05-30 09:05:00,
2013-05-30 04:10:00,58.0,56.3,29.50,SSE,152,16.0,35.0,94,0.06,,,0.39,Wunderground v.1.15,2013-05-30 09:10:00,
2013-05-30 04:15:00,58.0,56.3,29.50,SE,138,15.0,35.0,94,0.08,,,0.39,Wunderground v.1.15,2013-05-30 09:15:00,
2013-05-30 04:20:00,58.2,56.5,29.50,SSE,159,15.0,35.0,94,0.08,,,0.40,Wunderground v.1.15,2013-05-30 09:20:00,
2013-05-30 04:30:00,58.3,56.3,29.51,SSE,151,15.0,35.0,93,0.06,,,0.41,Wunderground v.1.15,2013-05-30 09:30:00,
2013-05-30 04:35:00,58.4,56.4,29.51,SSE,160,16.0,35.0,93,0.07,,,0.42,Wunderground v.1.15,2013-05-30 09:35:00,
2013-05-30 04:40:00,58.5,56.5,29.52,SSE,147,17.0,35.0,93,0.07,,,0.42,Wunderground v.1.15,2013-05-30 09:40:00,
2013-05-30 04:45:00,58.5,56.5,29.51,SSE,161,17.0,35.0,93,0.05,,,0.42,Wunderground v.1.15,2013-05-30 09:45:00,
2013-05-30 04:55:00,58.4,56.4,29.52,SSE,152,16.0,35.0,93,0.06,,,0.43,Wunderground v.1.15,2013-05-30 09:55:00,
2013-05-30 05:00:00,58.4,56.4,29.52,SSE,148,15.0,15.0,93,0.06,,,0.44,Wunderground v.1.15,2013-05-30 10:00:00,
2013-05-30 05:05:00,58.4,56.4,29.51,SSE,150,14.0,35.0,93,0.06,,,0.44,Wunderground v.1.15,2013-05-30 10:05:00,
2013-05-30 05:10:00,58.4,56.4,29.52,SSE,153,13.0,13.0,93,0.04,,,0.45,Wunderground v.1.15,2013-05-30 10:10:00,
2013-05-30 05:15:00,58.4,56.4,29.52,SSE,165,12.0,35.0,93,0.04,,,0.45,Wunderground v.1.15,2013-05-30 10:15:00,
2013-05-30 05:25:00,58.4,56.4,29.53,SSE,165,8.0,35.0,93,0.06,,,0.46,Wunderground v.1.15,2013-05-30 10:25:00,
2013-05-30 05:30:00,58.4,56.4,29.53,SSE,167,7.0,7.0,93,0.06,,,0.46,Wunderground v.1.15,2013-05-30 10:30:00,
2013-05-30 05:40:00,58.2,56.5,29.53,SSE,161,6.0,35.0,94,0.04,,,0.47,Wunderground v.1.15,2013-05-30 10:40:00,
2013-05-30 05:45:00,58.2,56.5,29.53,SSE,162,7.0,35.0,94,0.04,,,0.47,Wunderground v.1.15,2013-05-30 10:45:00,
2013-05-30 05:50:00,58.2,56.5,29.53,SSE,157,8.0,35.0,94,0.05,,,0.48,Wunderground v.1.15,2013-05-30 10:50:00,
2013-05-30 05:55:00,58.2,56.5,29.53,SSE,158,7.0,35.0,94,0.05,,,0.48,Wunderground v.1.15,2013-05-30 10:55:00,
2013-05-30 06:05:00,58.1,56.4,29.54,SSE,160,6.0,35.0,94,0.00,,,0.48,Wunderground v.1.15,2013-05-30 11:05:00,
2013-05-30 06:10:00,58.2,56.5,29.54,SSE,161,4.0,35.0,94,0.00,,,0.49,Wunderground v.1.15,2013-05-30 11:10:00,
2013-05-30 06:15:00,58.2,56.5,29.54,SSE,162,5.0,35.0,94,0.00,,,0.49,Wunderground v.1.15,2013-05-30 11:15:00,
2013-05-30 06:25:00,58.2,56.5,29.55,SSE,163,4.0,35.0,94,0.04,,,0.50,Wunderground v.1.15,2013-05-30 11:25:00,
2013-05-30 06:30:00,58.2,56.5,29.55,SSE,163,4.0,35.0,94,0.04,,,0.50,Wunderground v.1.15,2013-05-30 11:30:00,
2013-05-30 06:35:00,58.1,56.4,29.56,SSE,163,4.0,35.0,94,0.04,,,0.50,Wunderground v.1.15,2013-05-30 11:35:00,
2013-05-30 06:40:00,58.1,56.4,29.56,South,184,5.0,35.0,94,0.00,,,0.50,Wunderground v.1.15,2013-05-30 11:40:00,
2013-05-30 06:50:00,58.5,56.5,29.57,SSW,205,7.0,7.0,93,0.00,,,0.51,Wunderground v.1.15,2013-05-30 11:50:00,
2013-05-30 06:55:00,58.5,56.5,29.57,SSW,199,7.0,35.0,93,0.00,,,0.51,Wunderground v.1.15,2013-05-30 11:55:00,
2013-05-30 07:00:00,58.6,56.6,29.57,SSW,195,7.0,35.0,93,0.04,,,0.52,Wunderground v.1.15,2013-05-30 12:00:00,
2013-05-30 07:10:00,58.8,56.5,29.57,SW,219,7.0,35.0,92,0.04,,,0.52,Wunderground v.1.15,2013-05-30 12:10:00,
2013-05-30 07:15:00,58.8,56.5,29.57,WSW,237,8.0,35.0,92,0.00,,,0.52,Wunderground v.1.15,2013-05-30 12:15:00,
2013-05-30 07:20:00,59.0,56.7,29.57,SW,227,9.0,35.0,92,0.00,,,0.52,Wunderground v.1.15,2013-05-30 12:20:00,
2013-05-30 07:25:00,59.0,56.4,29.57,SW,234,10.0,35.0,91,0.00,,,0.53,Wunderground v.1.15,2013-05-30 12:25:00,
2013-05-30 07:35:00,59.0,56.4,29.57,WSW,238,10.0,35.0,91,0.00,,,0.53,Wunderground v.1.15,2013-05-30 12:35:00,
2013-05-30 07:40:00,59.0,56.7,29.57,WSW,244,9.0,9.0,92,0.00,,,0.53,Wunderground v.1.15,2013-05-30 12:40:00,
2013-05-30 07:45:00,59.0,56.7,29.57,WSW,243,8.0,35.0,92,0.00,,,0.54,Wunderground v.1.15,2013-05-30 12:45:00,
2013-05-30 07:55:00,59.1,56.8,29.57,WSW,240,8.0,35.0,92,0.00,,,0.54,Wunderground v.1.15,2013-05-30 12:55:00,
2013-05-30 08:00:00,59.3,57.0,29.57,WSW,237,9.0,35.0,92,0.00,,,0.54,Wunderground v.1.15,2013-05-30 13:00:00,
2013-05-30 08:05:00,59.5,57.2,29.57,SW,229,9.0,35.0,92,0.00,,,0.54,Wunderground v.1.15,2013-05-30 13:05:00,
2013-05-30 08:15:00,59.6,57.3,29.57,SW,227,10.0,35.0,92,0.00,,,0.55,Wunderground v.1.15,2013-05-30 13:15:00,
2013-05-30 08:20:00,59.7,57.4,29.57,WSW,239,9.0,9.0,92,0.00,,,0.55,Wunderground v.1.15,2013-05-30 13:20:00,
2013-05-30 08:25:00,59.9,57.6,29.57,SW,234,9.0,35.0,92,0.00,,,0.55,Wunderground v.1.15,2013-05-30 13:25:00,
2013-05-30 08:30:00,60.0,57.4,29.57,SW,231,9.0,9.0,91,0.00,,,0.55,Wunderground v.1.15,2013-05-30 13:30:00,
2013-05-30 08:40:00,60.3,57.7,29.58,SW,223,9.0,35.0,91,0.00,,,0.56,Wunderground v.1.15,2013-05-30 13:40:00,
2013-05-30 08:45:00,60.5,57.6,29.58,SW,236,10.0,35.0,90,0.00,,,0.56,Wunderground v.1.15,2013-05-30 13:45:00,
2013-05-30 08:50:00,60.7,57.4,29.58,SW,223,11.0,11.0,89,0.00,,,0.56,Wunderground v.1.15,2013-05-30 13:50:00,
2013-05-30 08:55:00,60.8,57.5,29.58,SW,234,11.0,16.0,89,0.00,,,0.56,Wunderground v.1.15,2013-05-30 13:55:00,
2013-05-30 09:05:00,61.3,57.4,29.58,SW,215,12.0,12.0,87,0.00,,,0.56,Wunderground v.1.15,2013-05-30 14:05:00,
2013-05-30 09:10:00,61.6,57.4,29.59,SW,222,12.0,35.0,86,0.00,,,0.57,Wunderground v.1.15,2013-05-30 14:10:00,
2013-05-30 09:15:00,61.7,57.1,29.59,SSW,213,14.0,35.0,85,0.00,,,0.57,Wunderground v.1.15,2013-05-30 14:15:00,
2013-05-30 09:20:00,61.8,57.2,29.59,SSW,208,15.0,15.0,85,0.00,,,0.57,Wunderground v.1.15,2013-05-30 14:20:00,
2013-05-30 09:30:00,62.0,57.1,29.59,SW,219,15.0,35.0,84,0.00,,,0.57,Wunderground v.1.15,2013-05-30 14:30:00,
2013-05-30 09:35:00,62.1,57.2,29.58,SSW,213,14.0,35.0,84,0.00,,,0.58,Wunderground v.1.15,2013-05-30 14:35:00,
2013-05-30 09:40:00,62.2,57.3,29.58,SW,219,13.0,13.0,84,0.00,,,0.58,Wunderground v.1.15,2013-05-30 14:40:00,
2013-05-30 09:45:00,62.3,57.4,29.58,SSW,206,13.0,15.0,84,0.00,,,0.58,Wunderground v.1.15,2013-05-30 14:45:00,
2013-05-30 09:55:00,62.5,57.6,29.58,South,171,14.0,18.0,84,0.00,,,0.58,Wunderground v.1.15,2013-05-30 14:55:00,
2013-05-30 10:00:00,62.7,58.1,29.58,SSW,207,14.0,35.0,85,0.00,,,0.58,Wunderground v.1.15,2013-05-30 15:00:00,
2013-05-30 10:05:00,62.8,57.9,29.59,SW,214,15.0,35.0,84,0.00,,,0.58,Wunderground v.1.15,2013-05-30 15:05:00,
2013-05-30 10:10:00,62.8,57.6,29.58,SW,215,14.0,35.0,83,0.00,,,0.58,Wunderground v.1.15,2013-05-30 15:10:00,
2013-05-30 10:20:00,63.2,58.3,29.57,South,176,13.0,13.0,84,0.00,,,0.58,Wunderground v.1.15,2013-05-30 15:20:00,
2013-05-30 10:25:00,63.4,58.5,29.58,South,182,11.0,35.0,84,0.00,,,0.59,Wunderground v.1.15,2013-05-30 15:25:00,
2013-05-30 10:30:00,63.4,58.5,29.58,SSW,211,10.0,35.0,84,0.00,,,0.59,Wunderground v.1.15,2013-05-30 15:30:00,
2013-05-30 10:40:00,63.9,58.6,29.58,SSW,200,12.0,35.0,83,0.00,,,0.59,Wunderground v.1.15,2013-05-30 15:40:00,
2013-05-30 10:45:00,63.8,58.5,29.58,South,175,12.0,35.0,83,0.00,,,0.59,Wunderground v.1.15,2013-05-30 15:45:00,
2013-05-30 10:50:00,64.1,59.5,29.57,SW,215,11.0,35.0,85,0.00,,,0.59,Wunderground v.1.15,2013-05-30 15:50:00,
2013-05-30 10:55:00,64.5,58.9,29.57,South,184,11.0,35.0,82,0.00,,,0.59,Wunderground v.1.15,2013-05-30 15:55:00,
2013-05-30 11:05:00,64.7,58.7,29.57,SW,214,11.0,35.0,81,0.00,,,0.59,Wunderground v.1.15,2013-05-30 16:05:00,
2013-05-30 11:10:00,64.8,59.5,29.57,South,171,9.0,35.0,83,0.00,,,0.59,Wunderground v.1.15,2013-05-30 16:10:00,
2013-05-30 11:15:00,65.2,59.9,29.57,SSW,207,10.0,35.0,83,0.00,,,0.60,Wunderground v.1.15,2013-05-30 16:15:00,
2013-05-30 11:20:00,65.6,60.6,29.57,South,175,10.0,10.0,84,0.00,,,0.60,Wunderground v.1.15,2013-05-30 16:20:00,
2013-05-30 11:30:00,65.8,60.5,29.56,SSE,168,10.0,10.0,83,0.00,,,0.60,Wunderground v.1.15,2013-05-30 16:30:00,
2013-05-30 11:35:00,65.9,60.2,29.56,SSW,200,10.0,12.0,82,0.00,,,0.60,Wunderground v.1.15,2013-05-30 16:35:00,
2013-05-30 11:40:00,66.2,60.9,29.56,South,172,11.0,11.0,83,0.00,,,0.60,Wunderground v.1.15,2013-05-30 16:40:00,
2013-05-30 11:50:00,66.5,61.2,29.56,SSE,167,11.0,11.0,83,0.00,,,0.60,Wunderground v.1.15,2013-05-30 16:50:00,
2013-05-30 11:55:00,66.7,60.7,29.56,SSW,192,11.0,16.0,81,0.00,,,0.60,Wunderground v.1.15,2013-05-30 16:55:00,
2013-05-30 12:00:00,67.1,61.4,29.56,South,188,11.0,35.0,82,0.00,,,0.60,Wunderground v.1.15,2013-05-30 17:00:00,
2013-05-30 12:10:00,67.6,61.6,29.56,SSW,213,10.0,35.0,81,0.00,,,0.60,Wunderground v.1.15,2013-05-30 17:10:00,
2013-05-30 12:15:00,67.5,61.1,29.57,SSW,205,12.0,35.0,80,0.00,,,0.61,Wunderground v.1.15,2013-05-30 17:15:00,
2013-05-30 12:20:00,67.7,60.6,29.56,SSW,198,14.0,14.0,78,0.00,,,0.61,Wunderground v.1.15,2013-05-30 17:20:00,
2013-05-30 12:30:00,68.6,62.2,29.56,SSW,205,12.0,12.0,80,0.00,,,0.61,Wunderground v.1.15,2013-05-30 17:30:00,
2013-05-30 12:35:00,68.8,62.4,29.56,SSW,194,12.0,35.0,80,0.00,,,0.61,Wunderground v.1.15,2013-05-30 17:35:00,
2013-05-30 12:40:00,69.5,61.6,29.56,SW,218,12.0,12.0,76,0.00,,,0.61,Wunderground v.1.15,2013-05-30 17:40:00,
2013-05-30 12:45:00,69.4,61.9,29.57,SW,215,12.0,35.0,77,0.00,,,0.61,Wunderground v.1.15,2013-05-30 17:45:00,
2013-05-30 12:55:00,69.8,61.5,29.57,SSW,205,14.0,35.0,75,0.00,,,0.61,Wunderground v.1.15,2013-05-30 17:55:00,
2013-05-30 13:00:00,69.9,60.1,29.57,SSW,203,16.0,16.0,71,0.00,,,0.61,Wunderground v.1.15,2013-05-30 18:00:00,
2013-05-30 13:05:00,70.3,60.4,29.56,SW,231,16.0,20.0,71,0.00,,,0.61,Wunderground v.1.15,2013-05-30 18:05:00,
2013-05-30 13:10:00,70.2,60.4,29.57,SSW,211,15.0,15.0,71,0.00,,,0.62,Wunderground v.1.15,2013-05-30 18:10:00,
2013-05-30 13:20:00,70.9,60.2,29.56,SSW,209,16.0,16.0,69,0.00,,,0.62,Wunderground v.1.15,2013-05-30 18:20:00,
2013-05-30 13:25:00,70.8,60.5,29.56,SW,232,17.0,20.0,70,0.00,,,0.62,Wunderground v.1.15,2013-05-30 18:25:00,
2013-05-30 13:30:00,70.8,59.7,29.56,SW,232,17.0,35.0,68,0.00,,,0.62,Wunderground v.1.15,2013-05-30 18:30:00,
2013-05-30 13:40:00,71.1,60.4,29.55,SW,219,15.0,15.0,69,0.00,,,0.62,Wunderground v.1.15,2013-05-30 18:40:00,
2013-05-30 13:45:00,71.5,61.6,29.55,SW,225,15.0,16.0,71,0.00,,,0.62,Wunderground v.1.15,2013-05-30 18:45:00,
2013-05-30 13:50:00,71.3,59.8,29.55,SW,227,15.0,35.0,67,0.00,,,0.62,Wunderground v.1.15,2013-05-30 18:50:00,
2013-05-30 13:55:00,71.5,60.8,29.55,SW,218,17.0,35.0,69,0.00,,,0.62,Wunderground v.1.15,2013-05-30 18:55:00,
2013-05-30 14:05:00,71.9,59.5,29.54,SW,231,17.0,35.0,65,0.00,,,0.62,Wunderground v.1.15,2013-05-30 19:05:00,
2013-05-30 14:10:00,72.0,59.6,29.55,SSW,212,17.0,17.0,65,0.00,,,0.62,Wunderground v.1.15,2013-05-30 19:10:00,
2013-05-30 14:15:00,72.1,60.5,29.54,SW,223,16.0,35.0,67,0.00,,,0.62,Wunderground v.1.15,2013-05-30 19:15:00,
2013-05-30 14:20:00,72.0,60.4,29.55,SW,221,15.0,15.0,67,0.00,,,0.62,Wunderground v.1.15,2013-05-30 19:20:00,
2013-05-30 14:30:00,72.4,60.0,29.54,SSW,204,15.0,35.0,65,0.00,,,0.62,Wunderground v.1.15,2013-05-30 19:30:00,
2013-05-30 14:35:00,72.5,60.5,29.54,WSW,242,16.0,35.0,66,0.00,,,0.62,Wunderground v.1.15,2013-05-30 19:35:00,
2013-05-30 14:40:00,72.6,59.7,29.54,SW,219,15.0,35.0,64,0.00,,,0.62,Wunderground v.1.15,2013-05-30 19:40:00,
2013-05-30 14:50:00,73.3,59.0,29.54,WSW,238,18.0,18.0,61,0.00,,,0.62,Wunderground v.1.15,2013-05-30 19:50:00,
2013-05-30 14:55:00,73.1,59.8,29.54,SW,229,18.0,20.0,63,0.00,,,0.62,Wunderground v.1.15,2013-05-30 19:55:00,
2013-05-30 15:00:00,73.6,60.2,29.54,SW,220,17.0,35.0,63,0.00,,,0.62,Wunderground v.1.15,2013-05-30 20:00:00,
2013-05-30 15:05:00,73.7,59.9,29.54,SW,229,16.0,35.0,62,0.00,,,0.62,Wunderground v.1.15,2013-05-30 20:05:00,
2013-05-30 15:10:00,73.7,58.5,29.53,SW,217,16.0,16.0,59,0.00,,,0.62,Wunderground v.1.15,2013-05-30 20:10:00,
2013-05-30 15:20:00,74.9,57.6,29.53,SW,226,16.0,16.0,55,0.00,,,0.62,Wunderground v.1.15,2013-05-30 20:20:00,
2013-05-30 15:25:00,74.9,55.6,29.53,SSW,213,19.0,19.0,51,0.00,,,0.62,Wunderground v.1.15,2013-05-30 20:25:00,
2013-05-30 15:35:00,75.4,57.1,29.53,SW,217,17.0,35.0,53,0.00,,,0.63,Wunderground v.1.15,2013-05-30 20:35:00,
2013-05-30 15:40:00,75.7,56.8,29.53,SW,230,19.0,35.0,52,0.00,,,0.63,Wunderground v.1.15,2013-05-30 20:40:00,
2013-05-30 15:45:00,75.6,55.1,29.53,SW,228,20.0,35.0,49,0.00,,,0.63,Wunderground v.1.15,2013-05-30 20:45:00,
2013-05-30 15:50:00,75.9,56.5,29.53,WSW,252,20.0,35.0,51,0.00,,,0.63,Wunderground v.1.15,2013-05-30 20:50:00,
2013-05-30 16:00:00,76.0,56.0,29.53,WSW,252,20.0,35.0,50,0.00,,,0.63,Wunderground v.1.15,2013-05-30 21:00:00,
2013-05-30 16:05:00,76.4,51.6,29.52,WSW,246,19.0,35.0,42,0.00,,,0.63,Wunderground v.1.15,2013-05-30 21:05:00,
2013-05-30 16:10:00,76.4,54.7,29.52,WSW,258,20.0,35.0,47,0.00,,,0.63,Wunderground v.1.15,2013-05-30 21:10:00,
2013-05-30 16:15:00,76.0,53.7,29.52,WSW,245,20.0,35.0,46,0.00,,,0.63,Wunderground v.1.15,2013-05-30 21:15:00,
2013-05-30 16:25:00,76.9,53.3,29.52,WSW,240,17.0,20.0,44,0.00,,,0.63,Wunderground v.1.15,2013-05-30 21:25:00,
2013-05-30 16:30:00,76.9,52.7,29.52,WSW,242,18.0,18.0,43,0.00,,,0.63,Wunderground v.1.15,2013-05-30 21:30:00,
2013-05-30 16:35:00,76.7,53.1,29.52,WSW,248,17.0,35.0,44,0.00,,,0.63,Wunderground v.1.15,2013-05-30 21:35:00,
2013-05-30 16:45:00,76.9,53.9,29.52,SW,225,15.0,20.0,45,0.00,,,0.63,Wunderground v.1.15,2013-05-30 21:45:00,
2013-05-30 16:50:00,76.9,53.9,29.52,WSW,239,17.0,17.0,45,0.00,,,0.63,Wunderground v.1.15,2013-05-30 21:50:00,
2013-05-30 16:55:00,77.1,51.6,29.52,SW,230,17.0,19.0,41,0.00,,,0.63,Wunderground v.1.15,2013-05-30 21:55:00,
2013-05-30 17:00:00,77.4,51.9,29.52,WSW,257,17.0,35.0,41,0.00,,,0.63,Wunderground v.1.15,2013-05-30 22:00:00,
2013-05-30 17:10:00,77.0,50.8,29.52,WSW,247,20.0,20.0,40,0.00,,,0.63,Wunderground v.1.15,2013-05-30 22:10:00,
2013-05-30 17:15:00,76.9,54.5,29.52,SW,233,18.0,35.0,46,0.00,,,0.63,Wunderground v.1.15,2013-05-30 22:15:00,
2013-05-30 17:20:00,77.1,52.9,29.52,WSW,244,16.0,35.0,43,0.00,,,0.63,Wunderground v.1.15,2013-05-30 22:20:00,
2013-05-30 17:30:00,76.9,52.1,29.52,SW,233,17.0,17.0,42,0.00,,,0.63,Wunderground v.1.15,2013-05-30 22:30:00,
2013-05-30 17:35:00,76.2,53.3,29.52,SW,229,16.0,22.0,45,0.00,,,0.63,Wunderground v.1.15,2013-05-30 22:35:00,
2013-05-30 17:40:00,75.7,54.0,29.53,WSW,248,16.0,35.0,47,0.00,,,0.63,Wunderground v.1.15,2013-05-30 22:40:00,
2013-05-30 17:50:00,74.3,51.0,29.54,WSW,251,20.0,35.0,44,0.00,,,0.63,Wunderground v.1.15,2013-05-30 22:50:00,
2013-05-30 17:55:00,72.5,48.7,29.53,WSW,257,27.0,35.0,43,0.00,,,0.63,Wunderground v.1.15,2013-05-30 22:55:00,
2013-05-30 18:00:00,71.3,50.6,29.54,SW,233,25.0,25.0,48,0.00,,,0.63,Wunderground v.1.15,2013-05-30 23:00:00,
2013-05-30 18:05:00,70.7,49.5,29.54,WSW,243,20.0,35.0,47,0.00,,,0.63,Wunderground v.1.15,2013-05-30 23:05:00,
2013-05-30 18:15:00,70.7,50.6,29.53,WSW,245,19.0,35.0,49,0.00,,,0.63,Wunderground v.1.15,2013-05-30 23:15:00,
2013-05-30 18:20:00,69.8,48.7,29.53,SW,227,22.0,35.0,47,0.00,,,0.63,Wunderground v.1.15,2013-05-30 23:20:00,
2013-05-30 18:25:00,69.7,48.6,29.54,SSW,202,22.0,35.0,47,0.00,,,0.63,Wunderground v.1.15,2013-05-30 23:25:00,
2013-05-30 18:35:00,69.8,48.1,29.55,South,169,18.0,35.0,46,0.00,,,0.63,Wunderground v.1.15,2013-05-30 23:35:00,
2013-05-30 18:40:00,68.9,48.4,29.54,SSE,167,16.0,16.0,48,0.00,,,0.63,Wunderground v.1.15,2013-05-30 23:40:00,
2013-05-30 18:45:00,68.4,49.6,29.54,South,181,14.0,35.0,51,0.00,,,0.63,Wunderground v.1.15,2013-05-30 23:45:00,
2013-05-30 18:50:00,68.1,50.3,29.54,South,179,12.0,12.0,53,0.00,,,0.63,Wunderground v.1.15,2013-05-30 23:50:00,
2013-05-30 19:00:00,68.6,51.3,29.55,South,178,10.0,10.0,54,0.00,,,0.63,Wunderground v.1.15,2013-05-31 00:00:00,
2013-05-30 19:05:00,68.6,51.3,29.54,South,172,9.0,35.0,54,0.00,,,0.63,Wunderground v.1.15,2013-05-31 00:05:00,
2013-05-30 19:10:00,68.6,50.3,29.55,South,176,9.0,35.0,52,0.00,,,0.63,Wunderground v.1.15,2013-05-31 00:10:00,
2013-05-30 19:15:00,68.6,51.3,29.55,South,182,9.0,35.0,54,0.00,,,0.63,Wunderground v.1.15,2013-05-31 00:15:00,
2013-05-30 19:25:00,69.2,51.3,29.56,South,190,10.0,12.0,53,0.00,,,0.63,Wunderground v.1.15,2013-05-31 00:25:00,
2013-05-30 19:30:00,69.5,51.1,29.57,South,186,10.0,35.0,52,0.00,,,0.63,Wunderground v.1.15,2013-05-31 00:30:00,
2013-05-30 19:35:00,69.7,52.3,29.57,South,169,13.0,35.0,54,0.00,,,0.63,Wunderground v.1.15,2013-05-31 00:35:00,
2013-05-30 19:40:00,67.8,52.9,29.57,South,175,16.0,35.0,59,0.00,,,0.63,Wunderground v.1.15,2013-05-31 00:40:00,
2013-05-30 19:50:00,67.6,53.7,29.58,SSE,166,15.0,15.0,61,0.00,,,0.63,Wunderground v.1.15,2013-05-31 00:50:00,
2013-05-30 19:55:00,67.7,53.3,29.58,South,176,15.0,35.0,60,0.00,,,0.63,Wunderground v.1.15,2013-05-31 00:55:00,
2013-05-30 20:00:00,67.5,54.5,29.58,South,186,15.0,35.0,63,0.00,,,0.63,Wunderground v.1.15,2013-05-31 01:00:00,
2013-05-30 20:05:00,67.4,54.4,29.58,SSW,200,15.0,35.0,63,0.00,,,0.63,Wunderground v.1.15,2013-05-31 01:05:00,
2013-05-30 20:15:00,66.9,55.2,29.58,South,177,15.0,35.0,66,0.00,,,0.63,Wunderground v.1.15,2013-05-31 01:15:00,
2013-05-30 20:20:00,66.9,53.5,29.58,South,188,15.0,35.0,62,0.00,,,0.63,Wunderground v.1.15,2013-05-31 01:20:00,
2013-05-30 20:25:00,66.5,54.4,29.58,South,177,17.0,35.0,65,0.00,,,0.63,Wunderground v.1.15,2013-05-31 01:25:00,
2013-05-30 20:30:00,66.2,53.7,29.59,South,184,17.0,17.0,64,0.00,,,0.63,Wunderground v.1.15,2013-05-31 01:30:00,
2013-05-30 20:40:00,65.0,54.2,29.59,SSW,204,13.0,35.0,68,0.00,,,0.63,Wunderground v.1.15,2013-05-31 01:40:00,
2013-05-30 20:45:00,64.7,53.9,29.59,SSW,207,13.0,35.0,68,0.00,,,0.63,Wunderground v.1.15,2013-05-31 01:45:00,
2013-05-30 20:50:00,64.1,54.1,29.60,SSW,200,12.0,12.0,70,0.00,,,0.63,Wunderground v.1.15,2013-05-31 01:50:00,
2013-05-30 21:00:00,63.2,54.4,29.59,SSW,197,13.0,35.0,73,0.00,,,0.63,Wunderground v.1.15,2013-05-31 02:00:00,
2013-05-30 21:05:00,63.0,54.2,29.59,SSW,193,12.0,35.0,73,0.00,,,0.63,Wunderground v.1.15,2013-05-31 02:05:00,
2013-05-30 21:10:00,63.1,53.9,29.59,South,191,12.0,35.0,72,0.00,,,0.63,Wunderground v.1.15,2013-05-31 02:10:00,
2013-05-30 21:15:00,63.2,53.6,29.59,SSW,193,13.0,35.0,71,0.00,,,0.63,Wunderground v.1.15,2013-05-31 02:15:00,
2013-05-30 21:25:00,62.9,53.7,29.59,SSW,193,12.0,35.0,72,0.00,,,0.63,Wunderground v.1.15,2013-05-31 02:25:00,
2013-05-30 21:30:00,62.7,53.2,29.59,South,184,13.0,35.0,71,0.00,,,0.63,Wunderground v.1.15,2013-05-31 02:30:00,
2013-05-30 21:35:00,62.5,53.3,29.59,South,180,12.0,35.0,72,0.00,,,0.63,Wunderground v.1.15,2013-05-31 02:35:00,
2013-05-30 21:40:00,62.4,53.6,29.59,South,181,12.0,12.0,73,0.00,,,0.63,Wunderground v.1.15,2013-05-31 02:40:00,
2013-05-30 21:50:00,61.8,53.4,29.60,South,184,9.0,35.0,74,0.00,,,0.63,Wunderground v.1.15,2013-05-31 02:50:00,
2013-05-30 21:55:00,61.9,53.5,29.60,South,177,10.0,35.0,74,0.00,,,0.63,Wunderground v.1.15,2013-05-31 02:55:00,
2013-05-30 22:00:00,61.7,53.3,29.60,South,170,10.0,10.0,74,0.00,,,0.63,Wunderground v.1.15,2013-05-31 03:00:00,
2013-05-30 22:05:00,61.2,53.6,29.60,South,169,9.0,35.0,76,0.00,,,0.63,Wunderground v.1.15,2013-05-31 03:05:00,
2013-05-30 22:15:00,61.0,53.4,29.60,SSE,168,10.0,10.0,76,0.00,,,0.63,Wunderground v.1.15,2013-05-31 03:15:00,
2013-05-30 22:20:00,61.0,53.4,29.60,SSE,162,10.0,35.0,76,0.00,,,0.63,Wunderground v.1.15,2013-05-31 03:20:00,
2013-05-30 22:25:00,61.2,53.2,29.60,SSE,155,10.0,35.0,75,0.00,,,0.63,Wunderground v.1.15,2013-05-31 03:25:00,
2013-05-30 22:30:00,61.2,53.2,29.60,South,169,11.0,11.0,75,0.00,,,0.63,Wunderground v.1.15,2013-05-31 03:30:00,
2013-05-30 22:35:00,61.4,53.0,29.60,SSE,163,12.0,13.0,74,0.00,,,0.63,Wunderground v.1.15,2013-05-31 03:35:00,
2013-05-30 22:45:00,61.4,53.0,29.62,South,175,12.0,35.0,74,0.00,,,0.63,Wunderground v.1.15,2013-05-31 03:45:00,
2013-05-30 22:50:00,61.3,53.3,29.62,South,169,10.0,10.0,75,0.00,,,0.63,Wunderground v.1.15,2013-05-31 03:50:00,
2013-05-30 22:55:00,61.1,53.1,29.62,South,178,9.0,35.0,75,0.00,,,0.63,Wunderground v.1.15,2013-05-31 03:55:00,
2013-05-30 23:00:00,61.1,53.5,29.62,South,175,9.0,35.0,76,0.00,,,0.63,Wunderground v.1.15,2013-05-31 04:00:00,
2013-05-30 23:05:00,61.3,53.3,29.62,South,177,10.0,35.0,75,0.00,,,0.63,Wunderground v.1.15,2013-05-31 04:05:00,
2013-05-30 23:10:00,61.3,53.3,29.62,South,174,10.0,35.0,75,0.00,,,0.63,Wunderground v.1.15,2013-05-31 04:10:00,
2013-05-30 23:15:00,61.2,53.6,29.62,South,184,10.0,35.0,76,0.00,,,0.63,Wunderground v.1.15,2013-05-31 04:15:00,
2013-05-30 23:20:00,61.1,53.5,29.62,SSW,196,11.0,35.0,76,0.00,,,0.63,Wunderground v.1.15,2013-05-31 04:20:00,
2013-05-30 23:25:00,60.9,53.6,29.62,South,178,10.0,35.0,77,0.00,,,0.63,Wunderground v.1.15,2013-05-31 04:25:00,
2013-05-30 23:30:00,60.7,53.4,29.62,SSW,197,10.0,35.0,77,0.00,,,0.63,Wunderground v.1.15,2013-05-31 04:30:00,
2013-05-30 23:35:00,60.3,53.1,29.62,SSW,198,10.0,35.0,77,0.00,,,0.63,Wunderground v.1.15,2013-05-31 04:35:00,
2013-05-30 23:40:00,60.1,53.2,29.63,SSW,199,11.0,35.0,78,0.00,,,0.63,Wunderground v.1.15,2013-05-31 04:40:00,
2013-05-30 23:45:00,59.7,53.2,29.63,SSW,197,12.0,35.0,79,0.00,,,0.63,Wunderground v.1.15,2013-05-31 04:45:00,
2013-05-30 23:50:00,59.3,53.1,29.63,SSW,195,12.0,12.0,80,0.00,,,0.63,Wunderground v.1.15,2013-05-31 04:50:00,